Погода в Тумьюмучаше

Россия / Республика Марий Эл     56°49′51″N   48°46′22″E
темп.,
°C
ветер,
м/с
пор.,
м/с
влажн.,
%
обл.,
%
осадки,
мм/ч
давл.,
гПа
погр.,
м
18 апреля, вс
вс1800:00+3св34790 0.0 102544
03:00+2ссв35810 0.0 102470
06:00+3св37804 0.0 1024164
09:00+8св46635 0.0 1024519
12:00+10св675956 0.0 10241371
15:00+7св8865100 0.0 10261070
18:00+6всв6956100 0.0 1027840
21:00+2всв6136290 0.0 1028567
19 апреля, пн
пн1900:000всв6136859 0.0 1029494
03:000в6147272 0.0 1030518
06:000в713635 0.0 1031614
09:00+3в8113756 0.0 10321185
12:00+5в8103235 0.0 10311505
15:00+6в710306 0.0 10311598
18:00+5в611405 0.0 1031609
21:00+1в513510 0.0 1033352
20 апреля, вт
вт2000:00−1в513580 0.0 1033337
03:00−1в512560 0.0 1034310
06:000в511520 0.0 1034348
09:00+5юв68360 0.0 1034961
12:00+8вюв68310 0.0 10331357
15:00+9юв67300 0.0 10331482
18:00+6вюв59410 0.0 1031331
21:00+2вюв614545 0.0 1031317
21 апреля, ср
ср2100:00+2вюв5135315 0.0 1031327
03:00+1юв6155799 0.0 1030376
06:00+2юв71752100 0.0 1029677
09:00+6юв91739100 0.0 1027882
12:00+8юв91534100 0.0 10261062
15:00+9ююв81535100 0.0 10251400
18:00+6ююв81546100 0.1 10251144
21:00+3ююв81787100 0.4 1025931
22 апреля, чт
чт2200:00+3ююв81696100 0.3 1025733
03:00+3ююв71395100 0.4 1025713
06:00+3ю61295100 0.1 1026587
09:00+5ю61288100 0.1 1027592
12:00+8ю6980100 0.0 1027812
15:00+7ююв6983100 0.0 1028680
18:00+5ююв51091100 0.0 1029515
21:00+5ююв41094100 0.1 1029446